Hourly Data Report for February 15, 2021

KUGAARUK CLIMATE
NUNAVUT
Current Station Operator: ECCC - MSC

68°32'15.060" N
89°47'47.020" W
15.80 m
2303094
71407
NBB

Download Data

Hourly Data (February 2021)
Hourly Data Report for February 15, 2021
TIME
LST
Temp Definition
°C
Dew Point Definition
°C
Rel Hum Definition
%
Precip. Amount Definition
mm

Wind Dir Definition
10's deg

Wind Spd Definition
km/h
Visibility Definition
km
Stn Press Definition
kPa
Hmdx Definition


Wind Chill Definition


Weather Definition


00:00 -24.3 -27.6 74 0.0 25 28   100.39   -38 LegendNANA
01:00 -24.0 -27.1 76 0.0 23 32   100.40   -38 LegendNANA
02:00 -23.1 -26.1 76 0.0 23 29   100.39   -36 LegendNANA
03:00 -22.8 -25.4 79 0.0 24 43   100.23   -38 LegendNANA
04:00 -24.6 -27.3 78 0.0 24 23   100.33   -37 LegendNANA
05:00 -24.3 -27.1 78 0.0 24 26   100.25   -37 LegendNANA
06:00 -24.2 -27.2 76 0.0 24 29   100.18   -38 LegendNANA
07:00 -24.7 -27.4 78 0.0 24 30   100.14   -39 LegendNANA
08:00 -23.7 -26.5 78 0.0 24 35   100.12   -38 LegendNANA
09:00 -23.7 -26.6 77 0.0 27 38   100.06   -39 LegendNANA
10:00 -24.5 -27.5 76 0.0 27 38   100.08   -40 LegendNANA
11:00 -24.6 -27.5 77 0.0 26 45   100.08   -41 LegendNANA
12:00 -24.5 -27.5 76 0.0 24 36   100.15   -40 LegendNANA
13:00 -24.8 -27.7 77 0.0 26 31   100.19   -39 LegendNANA
14:00 -26.1 -29.1 76 0.0 26 27   100.33   -40 LegendNANA
15:00 -26.4 -29.4 76 0.0 24 23   100.36   -39 LegendNANA
16:00 -26.8 -29.9 74 0.0 24 31   100.37   -42 LegendNANA
17:00 -28.0 -31.2 75 0.0 24 24   100.43   -42 LegendNANA
18:00 -27.4 -30.7 73 0.0 26 27   100.38   -42 LegendNANA
19:00 -28.1 -31.4 74 0.0 24 39   100.30   -45 LegendNANA
20:00 -27.9 -31.3 72 0.0 23 39   100.31   -45 LegendNANA
21:00 -28.2 -31.5 73 0.0 23 35   100.32   -44 LegendNANA
22:00 -28.9 -32.3 73 0.0 24 35   100.35   -45 LegendNANA
23:00 -29.7 -32.9 73 0.0 24 35   100.36   -46 LegendNANA

Notes on Data Quality.

Legend

  • E = Estimated
  • M = Missing
  • NA = Not Available*
  • [empty] = Indicates an unobserved value
Date modified: